SL-14 R/B, 16194

Orbit data source: Space-Track

SL-14 R/B, 16194 is space debris in LEO originally from a launch on Thu, 24 Oct 1985 UTC launched from the Plesetsk Missile And Space Complex (PKMTR). Debris objects in space refer to the collection of defunct objects orbiting the Earth. Examples of debris include non-operational satellites, rocket bodies, and fragments generated from explosions, collisions, or faulty payload assembly.

Loading next visibility...
Identifier
16194, 1985-100B
Orbit
LEO
Country
Flag of CISCIS
Related business
Manufacturer
Yuzhnoe
Mission
Spacecraft
Bus & Motor
S5M, Unknown motor
Mass
1,600 kg wet, 1,600 kg dry
Launch date (UTC)
1985-10-24 (41 years ago)
Launch vehicle
Unknown
Launch site
Plesetsk Missile And Space Complex (PKMTR)
Object type
Payload
Rocket body
Debris
Shape & HBR
Unknown
Radar Cross Section
Large (>1 m²)

Expand to show TLE details & history
Last TLE update: 2 days ago

TLE from 2 days ago
0 SL-14 R/B
1 16194U 85100B   26171.35281045 -.00000554  00000-0 -17063-2 0  9995
2 16194  82.6095 259.6224 0017688 146.6965 280.2906 13.06885242938590
Epoch: 2026-06-20T08:28Z
TLE epoch observation values (Epoch: 2026-06-20T08:28:02.822Z)
Latitude
65.78289°
Longitude
-119.28365°
Altitude
1,244.195 km
Speed
7.24 km/s
True Right ascension
18h 25m 11s
True Declination
65° 39' 44"
Sunlit
Object was in daylight at epoch
Visualization orbit readout
Latitude
Unknown
Longitude
Unknown
Altitude
Unknown
Speed
Unknown
Apparent Right ascension
Unknown
Apparent Declination
Unknown
Sunlit
N/A
Visualization observer readout
Local Sidereal Time
23:09:11
Azimuth
Unknown
Elevation
Unknown
Doppler factor
Unknown
Orbital elements
Apogee altitude
1,245.95 km
Perigee altitude
1,219.027 km
Semi-major axis
7,610.625 km
Eccentricity
0.00177
Inclination
82.6095°
RAAN
259.6224°
Arg. of periapsis
146.6965°
True anomaly
280.09109°
Mean anomaly
280.2906°
Eccentric anomaly
280.19085°
Mean motion
3.26898 °/min
Orbital period
110.13 mins
BSTAR
-0.0017063
Loading maneuver chart data...
Computing Atmospheric mass density...
Loading historical data...
Loading historical data...
Loading historical data...
Loading historical data...
Loading historical data...
Loading historical data...
Loading historical data...

Documentation

Showing up to 5 results
|